NOAA NWS Hourly Roundups by Site

Regional Weather Roundup for Jackson, KY

To Select Another Site Choose from List

Select Site:  

000
ASUS43 KJKL 312110
RWRJKL

EAST KENTUCKY HOURLY WEATHER ROUNDUP
NATIONAL WEATHER SERVICE JACKSON KY
500 PM EDT SAT OCT 31 2020

NOTE: "FAIR" INDICATES FEW OR NO CLOUDS BELOW 12,000 FEET WITH
NO SIGNIFICANT WEATHER AND/OR OBSTRUCTIONS TO VISIBILITY.

* THESE REPORTS ARE NOT UNDER NWS QUALITY CONTROL AND MAY NOT
  REPORT WEATHER SUCH AS PRECIPITATION AND FOG.

KYZ079-080-083-085-087-088-110-112-115-119-120-312200
...EASTERN KENTUCKY...

CITY           SKY/WX    TMP DP  RH WIND       PRES   REMARKS
JACKSON        SUNNY     59  37  44 CALM      30.25F
LONDON         SUNNY     61  39  44 VRB6      30.25F
SOMERSET*      SUNNY     63  32  31 CALM      30.25F
MONTICELLO*    SUNNY     65  43  44 VRB7      30.24F
WILLIAMSBURG*    N/A     63  41  45 SE7       30.24F
MIDDLESBORO*   SUNNY     62  40  45 S8        30.27F
HARLAN APT*    CLEAR     59  38  44 SE3       30.27F
PIKE CO APT*     N/A     59  39  47 CALM      30.26F
BIG SANDY APT* CLEAR     60  39  45 SW5       30.27F
MOREHEAD APT*  CLEAR     57  36  44 CALM      30.27S
ASHLAND*       SUNNY     58  37  45 E5        30.27F
$$

KYZ035-036-041-042-044-050-067-078-099-312200
...CENTRAL KENTUCKY...

CITY           SKY/WX    TMP DP  RH WIND       PRES   REMARKS
MT STERLING*   SUNNY     59  37  44 S5        30.26F
FLEMING/MASON* SUNNY     57  37  47 S8        30.27F
DANVILLE*      SUNNY     59  36  41 S5        30.24F
RICHMOND*        N/A     63  39  42 S6        30.24F
LEXINGTON      SUNNY     57  40  52 SE8       30.24F
FRANKFORT      SUNNY     60  40  47 SE7       30.22F
LOUISVILLE     MOSUNNY   62  39  42 S10       30.19F
LEBANON*         N/A     61  41  48 CALM      30.22F
GLASGOW*       SUNNY     64  45  49 S5        30.21F
BOWLING GREEN  SUNNY     65  45  48 S7        30.20F
$$

KYZ091>093-OHZ055-061-077-WVZ005-015-034-035-042-312200
...SOUTHERN OHIO/WEST VIRGINIA...

CITY           SKY/WX    TMP DP  RH WIND       PRES   REMARKS
COVINGTON      SUNNY     57  38  48 SE12      30.22F
COLUMBUS       MOSUNNY   53  32  44 S8        30.24F
DAYTON         MOSUNNY   55  36  48 SE13      30.21F
WILMINGTON     SUNNY     54  36  50 S9G20     30.22F
HUNTINGTON     SUNNY     59  32  36 SW7       30.29S
CHARLESTON     MOSUNNY   60  36  40 SE5       30.26F
PINEVILLE*     SUNNY     58  41  52 MISG      30.32F
BECKLEY        SUNNY     53  36  52 SE9       30.30F
BLUEFIELD      SUNNY     49  35  58 VRB6      30.31F
LOGAN CO APT*    N/A     59  37  44 MISG      30.27F
$$

VAZ002-007-008-TNZ017-027-036-066-071-312200
...SOUTHWEST VIRGINIA/EAST TENNESSEE...

CITY           SKY/WX    TMP DP  RH WIND       PRES   REMARKS
WISE*          SUNNY     57  34  41 S7        30.30S
ABINGDON*      SUNNY     59  32  36 SW3       30.30S
BRISTOL        MOSUNNY   61  38  42 CALM      30.28F
MORRISTOWN*    CLEAR     61  41  48 VRB5      30.26F
SEVIERVILLE*   CLEAR     61  43  51 CALM      30.27S
KNOXVILLE      PTSUNNY   63  42  46 CALM      30.26F
LAFOLLETTE*    CLEAR     63  43  48 S8        30.29F
OAK RIDGE      MOSUNNY   62  41  46 S5        30.27F
CROSSVILLE     SUNNY     59  40  49 S12G18    30.25F
NASHVILLE      MOSUNNY   68  46  45 S10       30.21F
$$

...KEY TO REMARKS...
VSB - VISIBILITY IN MILES
WCI - WIND CHILL INDEX
HX  - HEAT INDEX

$$


 

View Past Reports for Jackson, KY.

Products Courtesy of NOAA-NWS
NWS Information Parsing Script by Ken True at Saratoga Weather - Script by SE Lincoln Weather.